Theta_e
327 330 333 338 342 337 340 354 355 367 362 356 356 355 352 353 353 355 354 357 352 351 357 347 352 354 353 356 352 344 343 334 337 332 333 335 336 336 334 334 332 334 335
325 329 334 338 342 344 342 348 355 360 361 358 361 357 355 352 353 351 353 353 352 352 351 352 349 355 349 356 350 351 341 335 336 331 329 327 331 333 335 334 332 335 334
325 330 334 339 341 343 344 344 349 357 362 364 360 358 357 355 350 351 350 351 350 349 351 352 350 356 355 349 353 349 347 334 334 344 330 325 322 329 335 337 333 337 333
328 332 335 338 341 343 347 350 343 353 357 362 361 366 352 349 348 352 351 351 350 350 349 349 351 356 350 356 351 347 349 345 332 333 335 342 339 330 326 335 336 336 336
328 330 333 336 339 343 346 350 355 350 355 357 359 355 355 352 352 349 360 358 354 349 345 350 352 353 355 359 360 354 353 344 335 328 330 338 331 338 325 321 330 333 334
326 328 331 334 335 339 342 347 350 354 356 355 357 354 355 355 350 353 349 348 349 349 351 347 351 352 354 355 351 351 349 346 345 335 335 329 328 328 326 324 327 329 333
324 323 323 327 331 333 335 338 340 342 348 353 354 353 353 353 354 353 352 352 349 348 355 354 354 353 358 355 352 348 346 347 341 348 333 332 330 328 326 324 323 322 328
322 320 320 325 327 330 331 333 333 334 339 343 346 351 354 353 350 352 351 356 354 354 358 356 356 352 350 348 347 343 341 343 343 346 345 335 335 331 330 328 323 319 323
319 317 318 320 322 325 327 330 332 333 334 335 340 346 348 347 351 355 357 354 353 351 353 352 351 347 346 345 345 342 340 343 342 342 345 342 341 335 335 330 326 321 316
315 316 317 318 319 319 322 326 331 332 333 334 335 336 343 347 343 345 349 350 352 347 348 348 347 345 345 344 342 340 342 342 339 338 340 341 340 336 335 332 329 324 321
314 315 316 317 318 320 321 322 323 326 329 331 332 334 335 340 344 342 341 342 345 345 344 346 345 344 341 341 341 340 338 336 336 340 339 340 340 337 333 332 327 324 322
310 311 313 313 315 315 317 320 322 321 323 328 330 331 333 335 339 339 343 340 342 343 341 344 341 340 339 340 337 337 336 335 334 338 338 338 335 342 341 332 338 330 334
310 310 311 311 312 313 316 316 318 319 321 322 324 329 329 331 337 338 341 342 337 336 336 338 338 339 339 339 339 337 336 335 335 336 337 338 339 341 333 333 330 328 328
308 310 310 310 311 313 314 315 317 318 319 319 320 324 328 328 328 332 335 339 339 337 336 337 340 342 341 338 338 337 336 335 334 335 337 336 336 337 338 336 333 334 332
307 308 309 309 310 311 313 314 315 317 319 318 318 321 328 327 326 326 328 331 336 338 337 335 339 341 340 337 336 336 335 335 334 335 336 338 334 329 334 333 334 336 332
306 307 308 309 310 311 311 312 314 315 318 317 317 319 324 325 323 324 324 327 330 331 336 336 336 336 333 318 313 324 336 336 334 335 336 338 328 327 319 320 320 329 336
306 306 307 308 310 311 312 312 312 314 315 316 317 317 320 323 322 321 321 323 326 328 328 331 335 334 336 315 312 314 330 333 339 340 339 336 334 327 331 318 316 315 317
306 307 308 309 310 311 311 312 312 313 313 313 315 317 316 319 322 320 321 323 326 326 327 327 327 330 333 314 308 309 330 338 337 338 339 337 335 333 329 328 324 322 323
307 308 309 310 310 310 311 311 311 312 311 312 313 316 316 316 320 321 323 322 323 324 324 324 326 330 332 312 306 312 326 327 332 336 339 336 335 322 309 328 326 324 322
308 308 308 307 308 309 310 310 309 310 310 311 313 315 317 317 317 322 325 323 324 323 320 321 325 320 328 315 305 312 330 329 328 334 335 317 325 313 308 323 329 325 322
308 308 306 307 307 307 308 305 305 306 310 312 313 314 315 318 319 324 325 324 324 322 322 322 326 326 325 327 302 301 317 332 331 331 331 332 310 306 304 307 326 324 326
304 306 304 305 308 309 307 305 306 309 310 310 312 313 314 314 316 324 325 322 322 320 321 323 321 320 328 309 309 302 300 304 313 326 330 331 309 305 303 306 309 308 310
304 307 303 304 307 307 310 307 308 310 310 310 311 311 311 313 315 320 321 323 321 316 315 313 313 315 319 322 307 302 300 303 310 322 316 305 304 302 303 300 301 300 317
303 305 304 306 305 308 309 310 310 311 311 309 310 311 311 309 311 314 320 321 318 314 313 312 312 314 316 319 313 311 311 308 311 310 313 314 312 309 312 308 305 313 316
304 305 304 305 306 309 308 310 310 312 312 310 311 311 310 311 311 314 314 321 323 312 313 314 315 314 314 312 297 296 302 307 306 308 315 316 321 318 317 316 314 317 317
304 304 306 305 308 307 308 310 312 312 312 311 310 311 311 311 313 314 311 301 300 297 295 293 297 312 300 295 294 294 294 294 295 309 313 311 315 314 316 316 315 316 314
Wind_Speed
7 4 5 7 7 5 6 11 11 11 10 12 12 11 11 10 8 5 4 4 7 8 6 7 6 7 6 6 5 5 5 6 5 5 2 4 4 4 6 5 6 5 6
4 3 7 7 8 8 5 5 10 11 12 10 9 9 10 10 9 9 9 10 8 8 10 10 7 9 7 7 7 6 6 6 4 6 6 5 7 8 8 6 6 6 7
2 7 8 10 10 8 5 2 7 11 11 13 9 8 9 7 11 10 9 10 12 14 11 12 10 8 7 8 8 8 7 6 5 7 7 4 6 5 9 8 7 6 7
8 9 11 11 11 11 10 8 2 8 10 11 11 10 9 10 10 7 9 10 13 11 10 10 10 8 9 8 9 8 7 6 7 6 7 9 8 6 2 8 9 7 7
10 11 14 13 14 13 12 12 8 1 4 5 10 9 11 10 9 9 9 9 11 14 14 11 7 6 4 5 4 7 8 5 6 7 6 7 8 9 8 10 7 9 7
11 12 12 14 15 15 14 16 15 13 14 4 4 8 12 9 10 8 9 9 10 11 12 13 10 10 9 8 7 6 6 5 5 6 8 8 6 8 9 9 10 8 9
9 11 12 12 13 16 16 13 14 13 14 11 8 4 8 8 8 11 9 10 9 10 12 12 11 11 9 8 8 8 7 5 5 5 7 8 8 9 9 7 9 8 3
10 10 11 11 13 14 15 15 15 14 14 12 11 11 8 4 5 7 8 4 4 4 11 13 11 12 12 11 9 7 7 7 7 8 7 8 9 8 7 7 8 9 5
7 8 10 9 10 10 12 13 12 13 14 14 12 10 8 9 9 7 6 2 5 4 9 12 12 11 13 14 13 10 11 11 9 12 10 7 7 9 6 7 8 9 9
3 6 7 8 8 9 11 12 11 11 12 13 12 12 11 8 7 7 8 4 6 7 9 11 13 14 15 15 15 12 14 14 10 7 10 11 8 10 5 7 6 7 8
7 8 9 8 10 12 12 11 12 10 11 12 12 12 12 11 11 4 5 6 3 6 9 10 12 12 13 11 11 12 13 13 12 9 9 11 10 7 6 7 7 7 7
7 9 9 10 10 10 12 12 10 12 10 10 10 12 12 12 10 8 6 2 5 5 7 10 10 11 12 10 12 12 12 14 13 10 10 10 9 11 7 7 7 7 5
7 8 10 10 11 12 11 11 11 11 12 11 12 8 11 11 10 10 6 7 3 5 5 7 9 12 14 13 12 13 12 13 11 9 9 11 10 8 9 9 8 8 5
6 8 9 10 10 11 11 11 11 12 10 10 11 10 7 10 11 10 11 6 3 6 5 9 12 13 11 10 11 11 9 12 12 10 10 8 10 10 10 9 8 7 6
8 7 8 10 11 12 11 12 12 12 11 11 11 11 6 5 8 10 10 10 8 4 5 6 10 10 9 9 10 9 9 11 12 12 11 10 11 11 13 10 11 9 8
10 10 11 13 13 12 12 12 13 12 12 12 12 10 12 3 7 7 8 8 8 9 6 7 8 9 5 8 3 8 9 10 12 13 13 12 9 12 10 12 9 11 9
10 12 13 13 12 12 12 13 14 14 13 13 12 12 12 7 7 7 8 8 8 7 8 9 6 9 10 12 15 15 11 13 14 14 13 12 11 12 12 12 13 7 10
11 13 13 14 14 14 14 14 14 14 15 14 14 12 12 14 8 3 10 7 8 8 8 7 9 10 8 12 11 12 13 15 15 15 13 12 12 11 12 9 9 6 9
12 13 14 15 15 16 15 14 15 14 14 16 15 15 13 12 14 8 5 8 7 9 8 8 8 10 9 8 11 10 9 10 14 15 15 12 13 14 14 14 15 17 17
14 14 15 17 17 16 17 16 17 16 15 14 16 16 15 12 13 14 8 8 6 9 8 9 9 11 11 9 8 8 9 10 9 13 14 15 15 12 16 15 16 16 16
16 14 14 16 14 11 11 12 13 14 17 17 15 14 16 15 13 13 10 7 7 10 9 8 8 11 8 6 9 9 7 11 10 9 8 9 13 15 14 16 13 14 12
15 12 12 13 14 10 11 12 13 14 16 16 17 16 15 14 13 13 11 11 10 8 10 9 9 7 5 2 5 7 4 10 7 7 7 9 14 15 16 13 16 17 12
14 12 9 11 12 13 9 9 12 11 11 13 15 13 15 13 15 15 10 10 12 9 9 9 7 6 6 5 7 9 10 9 4 7 7 10 10 12 8 11 9 4 11
12 12 15 15 12 12 11 9 10 11 14 11 16 15 13 12 13 12 8 10 12 10 9 7 6 7 7 6 6 9 9 9 4 6 6 7 7 6 5 3 5 6 4
12 13 13 13 17 14 15 12 10 13 14 12 12 11 10 11 12 10 8 10 9 5 5 5 5 6 6 7 6 7 7 8 7 10 3 5 4 4 4 5 5 5 3
13 14 16 14 16 14 11 13 12 12 12 12 10 9 9 8 9 8 7 6 2 5 3 2 6 1 1 5 10 11 11 11 11 4 4 1 6 5 5 6 6 7 8
Wind_Direction
70 63 49 41 34 37 271 190 210 198 213 203 200 211 217 217 216 236 296 273 158 192 185 224 191 230 238 251 171 210 227 253 260 267 226 213 234 268 263 211 228 176 215
141 62 49 49 51 36 22 259 216 208 208 214 220 217 220 220 212 198 214 208 183 199 203 208 225 198 219 206 203 214 239 213 224 249 257 236 203 211 221 248 229 188 232
65 60 60 45 40 31 14 307 264 216 212 233 209 223 245 256 206 197 187 204 204 204 206 196 223 196 207 190 196 206 220 252 210 195 279 258 273 219 182 212 243 203 246
77 57 58 41 47 24 20 15 178 235 216 215 241 218 230 233 229 192 195 192 206 220 214 217 203 218 193 234 177 205 222 219 259 191 231 284 325 327 218 196 202 239 222
63 58 54 46 36 32 35 25 10 29 230 229 232 249 218 252 231 233 225 196 180 209 215 200 203 204 223 198 233 184 204 215 244 266 229 233 253 246 269 292 186 198 229
78 63 65 54 45 39 36 42 22 23 17 302 213 231 278 269 268 224 214 217 203 198 210 201 196 195 191 216 185 200 208 230 288 250 287 264 251 242 243 253 267 239 190
78 62 42 58 50 45 37 45 40 33 17 13 14 211 242 269 283 272 241 237 207 205 186 192 196 187 184 178 166 181 185 213 238 263 267 276 271 274 275 281 274 276 200
73 60 48 39 58 53 41 35 38 33 27 28 19 6 327 249 246 262 274 286 238 224 162 181 171 166 170 181 172 183 189 192 216 220 247 267 285 268 278 270 279 275 241
80 52 67 37 43 44 54 35 21 32 27 26 16 15 16 356 331 304 286 93 97 114 138 159 174 187 186 174 167 185 186 191 194 202 179 240 266 283 263 266 268 272 273
49 47 44 48 39 28 43 33 22 31 26 21 21 14 3 15 353 328 304 191 187 167 178 187 198 199 198 197 196 201 198 201 197 197 181 177 216 249 242 261 259 264 273
6 358 5 13 352 7 14 25 4 13 20 13 11 15 8 20 357 345 334 317 260 206 196 201 210 207 206 207 209 221 219 217 216 208 193 200 186 244 221 229 237 240 248
14 23 8 14 7 7 355 352 353 344 360 6 7 9 360 358 13 3 332 305 254 199 188 184 217 222 216 209 223 226 223 217 219 211 217 217 202 213 243 237 228 227 228
34 360 353 0 359 357 356 352 342 350 342 349 340 14 352 352 354 354 359 333 260 282 280 263 215 231 233 236 234 237 223 217 229 239 232 214 217 206 221 227 216 219 219
353 349 340 345 350 344 347 341 336 333 334 336 329 329 353 345 344 347 346 350 332 294 287 272 244 238 239 236 239 226 230 233 217 232 257 254 227 209 202 224 242 218 197
317 333 336 330 328 331 331 326 335 324 321 317 316 307 312 332 335 338 341 341 341 329 282 277 280 270 247 239 235 231 241 225 229 230 241 247 252 221 204 214 210 215 207
319 342 328 324 320 318 318 322 311 316 316 306 303 305 297 316 303 319 324 328 336 336 327 306 293 266 270 311 279 259 254 231 236 245 243 241 230 243 219 225 237 204 206
352 331 319 314 318 316 310 306 310 308 301 301 294 291 287 266 295 305 310 327 323 318 314 313 282 280 275 240 248 249 254 263 260 247 244 234 229 211 221 223 238 244 214
325 317 314 313 308 308 307 304 300 303 300 294 292 287 287 292 241 265 300 309 310 315 315 308 304 302 274 228 230 236 251 257 251 251 243 235 230 213 216 207 217 223 249
310 306 313 313 315 308 299 297 294 292 293 292 287 285 280 278 293 232 243 281 295 297 293 293 298 286 282 265 217 225 241 244 257 257 251 242 239 231 201 212 216 221 231
324 324 317 304 299 301 307 304 299 292 286 287 292 292 289 280 280 288 249 262 276 276 284 304 304 298 292 306 269 220 252 239 236 241 240 228 239 232 210 212 222 217 212
322 326 308 304 299 296 308 304 299 297 292 292 286 284 284 282 275 271 266 258 266 278 286 292 290 290 294 349 26 16 306 268 250 238 236 239 219 224 212 215 227 222 211
309 314 314 300 306 294 293 283 282 282 289 295 294 287 276 273 269 259 239 245 252 261 261 260 268 282 325 62 8 340 312 296 298 274 239 235 214 213 218 212 220 237 223
312 321 303 299 287 276 250 260 271 289 288 282 280 280 297 290 273 267 244 240 239 240 262 263 280 289 312 327 59 338 326 289 277 282 309 306 243 216 218 220 235 245 241
295 300 309 294 285 289 294 275 283 295 288 264 268 275 263 271 278 272 263 235 250 243 247 267 286 311 317 329 3 334 323 306 276 258 270 299 279 208 216 134 193 211 277
305 299 297 298 297 293 299 292 296 299 297 292 280 284 281 258 263 268 257 245 254 356 309 290 316 309 316 8 338 311 324 318 303 296 254 270 245 217 204 181 185 198 196
304 304 302 306 296 291 291 299 301 309 303 303 292 295 291 268 276 261 236 227 124 131 197 309 288 301 193 332 314 310 311 312 310 270 276 265 267 231 211 195 181 200 204